Regional Weather Roundup
Issued by NWS

Home | Current Version | Previous Version | Text Only | Print | Product List | Glossary On
Versions: 1 2 3 4 5 6 7 8 9 10 11 12 13 14 15 16 17 18 19 20 21 22 23 24 25 26 27 28 29 30 31 32 33 34 35 36 37 38 39 40 41 42 43 44 45 46 47 48 49 50
000
ASUS43 KOAX 291210
RWRNE

WEATHER ROUNDUP FOR NEBRASKA
NATIONAL WEATHER SERVICE OMAHA NE
700 AM CDT FRI AUG 29 2014

NOTES: SATELLITE DATA IS BEING USED TO AUGMENT CLOUD COVER ABOVE
       12000 FEET.
       "FAIR" INDICATES FEW OR NO CLOUDS BELOW 12,000 FEET WITH NO
       SIGNIFICANT WEATHER AND/OR OBSTRUCTIONS TO VISIBILITY.

  * THESE STATIONS DO NOT REPORT WEATHER SUCH AS RAIN...SNOW OR FOG.

NEZ001>004-019>022-054>056-291300-
NEBRASKA PANHANDLE

CITY           SKY/WX    TMP DP  RH WIND       PRES   REMARKS
SCOTTSBLUFF    CLEAR     50  49  96 NW7       29.99R
6HR MIN TEMP:  49; 6HR MAX TEMP:  55;

ALLIANCE       CLEAR     50  48  93 W3        29.96R
6HR MIN TEMP:  49; 6HR MAX TEMP:  54;

CHADRON        CLEAR     54  51  90 SW7       29.94R
6HR MIN TEMP:  53; 6HR MAX TEMP:  56;

KIMBALL        CLEAR     49  47  92 W6        30.02S
SIDNEY         CLEAR     54  48  80 NW12      30.01R
6HR MIN TEMP:  51; 6HR MAX TEMP:  58;

$$

NEZ057>060-069>072-079>082-291300-
SOUTHWEST NEBRASKA

CITY           SKY/WX    TMP DP  RH WIND       PRES   REMARKS
NORTH PLATTE   CLEAR     52  51  97 NW3       29.90S
6HR MIN TEMP:  52; 6HR MAX TEMP:  60;

IMPERIAL       CLEAR     57  51  80 NW7       29.94R
6HR MIN TEMP:  56; 6HR MAX TEMP:  60;

LEXINGTON      PTCLDY    60  58  95 NW6       29.87R
MCCOOK         CLEAR     57  55  93 W9        29.90S
6HR MIN TEMP:  57; 6HR MAX TEMP:  64;

OGALLALA       CLEAR     49  48  97 CALM      29.94S
$$

NEZ005>010-023>029-035>040-094-291300-
NORTH CENTRAL NEBRASKA

CITY           SKY/WX    TMP DP  RH WIND       PRES   REMARKS
VALENTINE      PTCLDY    56  55  97 W5        29.87S
6HR MIN TEMP:  56; 6HR MAX TEMP:  64;

AINSWORTH      PTCLDY    59  58  96 W5        29.87R
BROKEN BOW     CLEAR     59  56  89 CALM      29.86S
6HR MIN TEMP:  59; 6HR MAX TEMP:  65;

O`NEILL        PTCLDY    63  63  99 W7        29.83R
ORD            MOCLDY    60  58  92 CALM      29.83R
6HR MIN TEMP:  59; 6HR MAX TEMP:  64;

THEDFORD       CLEAR     54  53  96 CALM      29.90S
$$

NEZ041-046>049-061>064-073>077-083>087-291300-
SOUTH CENTRAL NEBRASKA

CITY           SKY/WX    TMP DP  RH WIND       PRES   REMARKS
GRAND ISLAND   CLOUDY    65  63  93 NW3       29.83R
6HR MIN TEMP:  65; 6HR MAX TEMP:  71;

AURORA         CLOUDY    66  66 100 NW5       29.82R
HASTINGS       CLOUDY    65  62  90 NW7       29.83R
6HR MIN TEMP:  65; 6HR MAX TEMP:  69;

HEBRON         LGT RAIN  68  64  85 W9        29.81R
HOLDREGE       CLOUDY    62  60  93 CALM      29.86R
KEARNEY *      CLOUDY    63  61  94 W8        29.85S
YORK           CLOUDY    66 N/A N/A W3        29.81R
$$

NEZ011>018-030>034-042>045-291300-
NORTHEAST NEBRASKA

CITY           SKY/WX    TMP DP  RH WIND       PRES   REMARKS
NORFOLK        CLOUDY    67  65  93 NW5       29.80R
6HR MIN TEMP:  67; 6HR MAX TEMP:  71;

ALBION         CLOUDY    63  62  94 CALM      29.82S
BLAIR          LGT RAIN  72  69  92 SE7       29.81R
FREMONT        CLOUDY    71  68  89 SE6       29.79R
TEKAMAH        CLOUDY    71  69  93 SE9       29.79R
6HR MIN TEMP:  70; 6HR MAX TEMP:  72; 6HR PCP:  0.01;

WAYNE          CLOUDY    69  68  97 CALM      29.80R FOG
$$

NEZ050>053-065>068-078-088>093-291300-
SOUTHEAST NEBRASKA

CITY           SKY/WX    TMP DP  RH WIND       PRES   REMARKS
LINCOLN        LGT RAIN  71  66  84 S5        29.81R
6HR MIN TEMP:  71; 6HR MAX TEMP:  74; 6HR PCP: TRACE;

OMAHA EPPLEY   MOCLDY    72  69  90 S10       29.81R
6HR MIN TEMP:  71; 6HR MAX TEMP:  74; 6HR PCP:  0.01;

BEATRICE       CLOUDY    69  66  88 SE3       29.81S
FALLS CITY     MOCLDY    71  67  87 S7        29.82R
6HR MIN TEMP:  69; 6HR MAX TEMP:  75;

NEBRASKA CITY  LGT RAIN  70  70 100 S5        29.82R
PLATTSMOUTH    LGT RAIN  72  69  93 S3        29.82R
$$

NEZ044-045-051>053-067-291300-
OMAHA AREA

CITY           SKY/WX    TMP DP  RH WIND       PRES   REMARKS
OMAHA EPPLEY   MOCLDY    72  69  90 S10       29.81R
6HR MIN TEMP:  71; 6HR MAX TEMP:  74; 6HR PCP:  0.01;

BLAIR          LGT RAIN  72  69  92 SE7       29.81R
FREMONT        CLOUDY    71  68  89 SE6       29.79R
MILLARD        CLOUDY    72  70  92 S5        29.79R
OFFUTT AFB     LGT RAIN  71  71 100 SE6       29.81R FOG
PLATTSMOUTH    LGT RAIN  72  69  93 S3        29.82R
WAHOO          FAIR      69  66  90 S3        29.79R
$$


USA.gov is the U.S. government's official web portal to all federal, state and local government web resources and services.